This is the latest recevied weather packets stored in our database for station/object KB1JL-13. If no packets are shown the sender has not sent any weather packets the latest 10 day(s).
| Time | Temp. | Humidity | Pressure | Rain* | Wind** | Luminosity | Snow |
|---|---|---|---|---|---|---|---|
| 1777725617 | 10° C | 91% | 1023.4 hPa | 0 mm | - | 158 W/m² | - |
| 1777725315 | 10° C | 97% | 1023.7 hPa | 0 mm | - | 245 W/m² | - |
| 1777725012 | 10° C | 98% | 1023.7 hPa | 0 mm | - | 250 W/m² | - |
| 1777724708 | 10° C | 98% | 1023.4 hPa | 0 mm | - | 257 W/m² | - |
| 1777724406 | 9.44° C | 99% | 1023.7 hPa | 0 mm | - | 235 W/m² | - |
| 1777724103 | 9.44° C | 99% | 1023.7 hPa | 0 mm | - | 127 W/m² | - |
| 1777723800 | 8.89° C | 99% | 1023.4 hPa | 0 mm | - | 101 W/m² | - |
| 1777723496 | 8.89° C | 99% | 1023.4 hPa | 0 mm | - | 100 W/m² | - |
| 1777723194 | 8.89° C | 99% | 1023 hPa | 0 mm | - | 99 W/m² | - |
| 1777722891 | 8.89° C | 99% | 1023.4 hPa | 0 mm | - | 52 W/m² | - |
| 1777722587 | 8.89° C | 99% | 1023.4 hPa | 0 mm | - | 32 W/m² | - |
| 1777722284 | 8.89° C | 99% | 1023.4 hPa | 0 mm | - | 48 W/m² | - |
| 1777721981 | 8.33° C | 98% | 1023.7 hPa | 0 mm | - | 33 W/m² | - |
| 1777721678 | 8.33° C | 98% | 1023.7 hPa | 1.27 mm | - | 22 W/m² | - |
| 1777721377 | 8.89° C | 98% | 1024.4 hPa | 3.05 mm | - | 17 W/m² | - |
| 1777721074 | 8.89° C | 98% | 1024 hPa | 4.83 mm | - | 23 W/m² | - |
| 1777720772 | 8.89° C | 98% | 1024.4 hPa | 4.83 mm | - | 11 W/m² | - |
| 1777720468 | 8.89° C | 98% | 1024 hPa | 3.05 mm | - | 12 W/m² | - |
| 1777720166 | 8.33° C | 98% | 1024.4 hPa | 0 mm | - | 6 W/m² | - |
| 1777719864 | 8.89° C | 98% | 1024.4 hPa | 0 mm | - | 6 W/m² | - |
| 1777719561 | 8.89° C | 98% | 1024 hPa | 0 mm | - | 6 W/m² | - |
| 1777719258 | 8.89° C | 98% | 1024 hPa | 0 mm | - | 15 W/m² | - |
| 1777718956 | 8.89° C | 98% | 1024 hPa | 0 mm | - | 13 W/m² | - |
| 1777718653 | 8.33° C | 98% | 1023.7 hPa | 0 mm | - | 26 W/m² | - |
| 1777718350 | 8.33° C | 98% | 1023.7 hPa | 0 mm | - | 14 W/m² | - |
* Rain latest hour (hover to see other rain measurements)
** Current wind speed in m/s (hover to see current wind gust speed)